Time,TemperatureF,DewpointF,PressureIn,WindDirection,WindDirectionDegrees,WindSpeedMPH,WindSpeedGustMPH,Humidity,HourlyPrecipIn,Conditions,Clouds,dailyrainin,SolarRadiationWatts/m^2,SoftwareType,DateUTC
2013-10-11 00:04:00,52.3,48.2,30.03,SSE,159,0.0,0.0,86,0.00,CLR,,0.00,0.0,WeatherDisplay:10.37,2013-10-11 05:04:00,
2013-10-11 00:09:00,52.2,48.4,30.03,SSE,159,0.0,0.0,87,0.00,CLR,,0.00,0.0,WeatherDisplay:10.37,2013-10-11 05:09:00,
2013-10-11 00:14:00,51.9,48.2,30.03,SSE,159,0.0,0.0,87,0.00,CLR,,0.00,0.0,WeatherDisplay:10.37,2013-10-11 05:14:00,
2013-10-11 00:19:00,51.7,48.0,30.03,SSE,159,0.0,0.0,87,0.00,CLR,,0.00,0.0,WeatherDisplay:10.37,2013-10-11 05:19:00,
2013-10-11 00:24:00,51.4,48.0,30.03,SSE,159,0.0,0.0,88,0.00,CLR,,0.00,0.0,WeatherDisplay:10.37,2013-10-11 05:24:00,
2013-10-11 01:00:00,52.6,48.5,30.03,SSE,158,0.0,0.0,86,0.00,,CL,0.00,0.0,WeatherDisplay:10.37,2013-10-11 06:00:00,
2013-10-11 01:10:00,52.2,48.4,30.03,SSE,158,0.0,0.0,87,0.00,CL,CL,0.00,0.0,WeatherDisplay:10.37,2013-10-11 06:10:00,
2013-10-11 02:10:00,50.5,47.6,30.03,SSE,158,0.0,0.0,90,0.00,CL,CL,0.00,0.0,WeatherDisplay:10.37,2013-10-11 07:10:00,
2013-10-11 03:10:00,49.6,47.7,30.02,SSE,158,0.0,0.0,93,0.00,CL,CL,0.00,0.0,WeatherDisplay:10.37,2013-10-11 08:10:00,
2013-10-11 04:10:00,49.4,47.8,30.02,SSE,158,0.0,0.0,94,0.00,CL,CL,0.00,0.0,WeatherDisplay:10.37,2013-10-11 09:10:00,
2013-10-11 05:10:00,49.2,47.8,30.02,SSE,158,0.0,0.0,95,0.00,CL,CL,0.00,0.0,WeatherDisplay:10.37,2013-10-11 10:10:00,
2013-10-11 06:10:00,48.8,47.7,30.02,SSE,158,0.0,0.0,96,0.00,CL,CL,0.00,0.0,WeatherDisplay:10.37,2013-10-11 11:10:00,
2013-10-11 07:02:00,48.6,47.5,30.01,SSE,159,0.0,0.0,96,0.00,CLR,,0.00,0.0,WeatherDisplay:10.37,2013-10-11 12:02:00,
2013-10-11 07:07:00,48.5,47.4,30.01,SSE,159,0.0,0.0,96,0.00,CLR,,0.00,0.0,WeatherDisplay:10.37,2013-10-11 12:07:00,
2013-10-11 07:10:00,48.8,47.7,30.02,SSE,158,0.0,0.0,96,0.00,CL,CL,0.00,0.0,WeatherDisplay:10.37,2013-10-11 12:10:00,
2013-10-11 07:12:00,48.5,47.4,30.01,SSE,159,0.0,0.0,96,0.00,CLR,,0.00,5.0,WeatherDisplay:10.37,2013-10-11 12:12:00,
2013-10-11 07:17:00,48.3,47.2,30.02,SSE,159,0.0,0.0,96,0.00,CLR,,0.00,7.0,WeatherDisplay:10.37,2013-10-11 12:17:00,
2013-10-11 07:22:00,48.2,47.1,30.02,SSE,159,0.0,0.0,96,0.00,CLR,,0.00,9.0,WeatherDisplay:10.37,2013-10-11 12:22:00,
2013-10-11 07:27:00,48.2,47.1,30.02,SSE,159,0.0,0.0,96,0.00,CLR,,0.00,12.0,WeatherDisplay:10.37,2013-10-11 12:27:00,
2013-10-11 07:32:00,48.3,47.5,30.02,SSE,159,0.0,0.0,97,0.00,CLR,,0.00,18.0,WeatherDisplay:10.37,2013-10-11 12:32:00,
2013-10-11 07:37:00,48.3,47.5,30.02,SSE,159,0.0,0.0,97,0.00,CLR,,0.00,21.0,WeatherDisplay:10.37,2013-10-11 12:37:00,
2013-10-11 07:42:00,48.5,47.7,30.02,SSE,159,0.0,0.0,97,0.00,SCT,,0.00,25.0,WeatherDisplay:10.37,2013-10-11 12:42:00,
2013-10-11 07:47:00,48.8,48.0,30.03,SSE,159,0.0,0.0,97,0.00,SCT,,0.00,26.0,WeatherDisplay:10.37,2013-10-11 12:47:00,
2013-10-11 07:52:00,48.8,48.0,30.03,SSE,159,0.0,0.0,97,0.00,SCT,,0.00,28.0,WeatherDisplay:10.37,2013-10-11 12:52:00,
2013-10-11 07:57:00,48.9,48.1,30.03,SSE,159,0.0,0.0,97,0.00,SCT,,0.00,30.0,WeatherDisplay:10.37,2013-10-11 12:57:00,
2013-10-11 08:02:00,49.1,48.3,30.02,SSE,159,0.0,0.0,97,0.00,BKN,,0.00,35.0,WeatherDisplay:10.37,2013-10-11 13:02:00,
2013-10-11 08:07:00,49.2,48.4,30.02,SSE,159,0.0,0.0,97,0.00,BKN,,0.00,47.0,WeatherDisplay:10.37,2013-10-11 13:07:00,
2013-10-11 08:10:00,48.6,47.5,30.01,SSE,158,0.0,0.0,96,0.00,CL,CL,0.00,0.0,WeatherDisplay:10.37,2013-10-11 13:10:00,
2013-10-11 08:12:00,49.4,48.6,30.02,SSE,159,0.0,0.0,97,0.00,BKN,,0.00,67.0,WeatherDisplay:10.37,2013-10-11 13:12:00,
2013-10-11 08:17:00,49.6,48.8,30.02,SSE,159,0.0,0.0,97,0.00,BKN,,0.00,67.0,WeatherDisplay:10.37,2013-10-11 13:17:00,
2013-10-11 08:22:00,49.9,49.1,30.02,SSE,159,0.0,0.0,97,0.00,SCT,,0.00,63.0,WeatherDisplay:10.37,2013-10-11 13:22:00,
2013-10-11 08:27:00,50.1,49.3,30.02,SSE,159,0.0,0.0,97,0.00,SCT,,0.00,76.0,WeatherDisplay:10.37,2013-10-11 13:27:00,
2013-10-11 08:32:00,50.4,49.6,30.02,SSE,159,0.0,0.0,97,0.00,SCT,,0.00,63.0,WeatherDisplay:10.37,2013-10-11 13:32:00,
2013-10-11 08:37:00,50.7,49.9,30.02,SSE,159,0.0,0.0,97,0.00,SCT,,0.00,65.0,WeatherDisplay:10.37,2013-10-11 13:37:00,
2013-10-11 08:42:00,51.0,50.2,30.02,SSE,159,0.0,0.0,97,0.00,SCT,,0.00,93.0,WeatherDisplay:10.37,2013-10-11 13:42:00,
2013-10-11 08:47:00,51.3,50.5,30.02,SSE,159,0.0,0.0,97,0.00,SCT,,0.00,79.0,WeatherDisplay:10.37,2013-10-11 13:47:00,
2013-10-11 08:52:00,51.6,50.8,30.02,SSE,159,0.0,0.0,97,0.00,SCT,,0.00,70.0,WeatherDisplay:10.37,2013-10-11 13:52:00,
2013-10-11 08:57:00,51.9,51.1,30.02,SSE,159,0.0,0.0,97,0.00,SCT,,0.00,86.0,WeatherDisplay:10.37,2013-10-11 13:57:00,
2013-10-11 09:02:00,52.2,51.4,30.01,SSE,159,0.0,1.2,97,0.00,SCT,,0.00,90.0,WeatherDisplay:10.37,2013-10-11 14:02:00,
2013-10-11 09:07:00,52.6,51.8,30.01,SSE,159,0.0,0.0,97,0.00,SCT,,0.00,111.0,WeatherDisplay:10.37,2013-10-11 14:07:00,
2013-10-11 09:12:00,53.1,52.3,30.01,SSE,159,0.0,0.0,97,0.00,SCT,,0.00,107.0,WeatherDisplay:10.37,2013-10-11 14:12:00,
2013-10-11 09:17:00,53.5,52.7,30.01,SSE,159,0.0,0.0,97,0.00,SCT,,0.00,111.0,WeatherDisplay:10.37,2013-10-11 14:17:00,
2013-10-11 09:22:00,54.1,53.3,30.01,SSE,159,0.0,0.0,97,0.00,BKN,,0.00,118.0,WeatherDisplay:10.37,2013-10-11 14:22:00,
2013-10-11 09:27:00,54.8,53.7,30.01,WSW,240,0.0,0.0,96,0.00,BKN,,0.00,128.0,WeatherDisplay:10.37,2013-10-11 14:27:00,
2013-10-11 09:32:00,55.3,54.2,30.02,WSW,240,0.0,0.0,96,0.00,BKN,,0.00,111.0,WeatherDisplay:10.37,2013-10-11 14:32:00,
2013-10-11 09:37:00,55.9,54.5,30.02,SSW,199,0.0,0.0,95,0.00,BKN,,0.00,111.0,WeatherDisplay:10.37,2013-10-11 14:37:00,
2013-10-11 09:42:00,56.3,54.6,30.02,SSW,199,0.0,0.0,94,0.00,BKN,,0.00,107.0,WeatherDisplay:10.37,2013-10-11 14:42:00,
2013-10-11 09:47:00,56.9,54.9,30.02,SSW,199,0.0,0.0,93,0.00,BKN,,0.00,178.0,WeatherDisplay:10.37,2013-10-11 14:47:00,
2013-10-11 09:52:00,57.3,55.0,30.02,SSW,199,0.0,0.0,92,0.00,BKN,,0.00,104.0,WeatherDisplay:10.37,2013-10-11 14:52:00,
2013-10-11 09:57:00,57.8,54.9,30.02,South,180,0.0,4.6,90,0.00,BKN,,0.00,139.0,WeatherDisplay:10.37,2013-10-11 14:57:00,
2013-10-11 10:02:00,58.4,55.5,30.01,SSE,164,0.0,0.0,90,0.00,SCT,,0.00,404.0,WeatherDisplay:10.37,2013-10-11 15:02:00,
2013-10-11 10:07:00,58.9,55.4,30.01,SSE,164,0.0,0.0,88,0.00,SCT,,0.00,309.0,WeatherDisplay:10.37,2013-10-11 15:07:00,
2013-10-11 10:12:00,59.6,55.4,30.01,East,84,0.0,0.0,86,0.00,SCT,,0.00,283.0,WeatherDisplay:10.37,2013-10-11 15:12:00,
2013-10-11 10:17:00,60.4,55.5,30.01,SSE,159,0.0,0.0,84,0.00,SCT,,0.00,394.0,WeatherDisplay:10.37,2013-10-11 15:17:00,
2013-10-11 10:22:00,60.7,55.5,30.01,SSE,162,0.0,4.6,83,0.00,SCT,,0.00,218.0,WeatherDisplay:10.37,2013-10-11 15:22:00,
2013-10-11 10:27:00,61.0,55.8,30.01,South,177,0.0,0.0,83,0.00,SCT,,0.00,218.0,WeatherDisplay:10.37,2013-10-11 15:27:00,
2013-10-11 10:32:00,61.5,56.0,30.01,South,173,1.2,5.5,82,0.00,SCT,,0.00,207.0,WeatherDisplay:10.37,2013-10-11 15:32:00,
2013-10-11 10:37:00,61.6,55.7,30.01,SSW,198,0.5,3.5,81,0.00,SCT,,0.00,181.0,WeatherDisplay:10.37,2013-10-11 15:37:00,
2013-10-11 10:42:00,62.0,56.1,30.01,SSW,198,0.0,1.2,81,0.00,CLR,,0.00,599.0,WeatherDisplay:10.37,2013-10-11 15:42:00,
2013-10-11 10:47:00,63.1,56.5,30.01,South,176,0.0,0.0,79,0.00,CLR,,0.00,580.0,WeatherDisplay:10.37,2013-10-11 15:47:00,
2013-10-11 10:52:00,63.7,56.0,30.01,ENE,71,0.0,1.1,76,0.00,CLR,,0.00,424.0,WeatherDisplay:10.37,2013-10-11 15:52:00,
2013-10-11 10:57:00,64.7,57.0,30.01,ENE,78,0.0,0.0,76,0.00,CLR,,0.00,468.0,WeatherDisplay:10.37,2013-10-11 15:57:00,
2013-10-11 11:02:00,65.2,56.7,29.99,SSW,194,0.2,2.3,74,0.00,CLR,,0.00,552.0,WeatherDisplay:10.37,2013-10-11 16:02:00,
2013-10-11 11:07:00,65.6,57.5,29.99,South,188,0.1,3.5,75,0.00,CLR,,0.00,580.0,WeatherDisplay:10.37,2013-10-11 16:07:00,
2013-10-11 11:12:00,66.4,57.5,29.99,South,171,0.3,2.3,73,0.00,CLR,,0.00,566.0,WeatherDisplay:10.37,2013-10-11 16:12:00,
2013-10-11 11:17:00,66.9,57.2,29.98,SSE,157,2.0,7.7,71,0.00,CLR,,0.00,608.0,WeatherDisplay:10.37,2013-10-11 16:17:00,
2013-10-11 11:22:00,67.4,57.3,29.98,SSE,167,2.0,6.9,70,0.00,CLR,,0.00,561.0,WeatherDisplay:10.37,2013-10-11 16:22:00,
2013-10-11 11:27:00,67.4,57.7,29.98,South,190,4.5,15.4,71,0.00,CLR,,0.00,578.0,WeatherDisplay:10.37,2013-10-11 16:27:00,
2013-10-11 11:32:00,67.6,57.5,29.99,SSE,161,0.5,5.8,70,0.00,CLR,,0.00,570.0,WeatherDisplay:10.37,2013-10-11 16:32:00,
2013-10-11 11:37:00,68.3,57.7,29.99,SSW,198,2.2,5.5,69,0.00,CLR,,0.00,628.0,WeatherDisplay:10.37,2013-10-11 16:37:00,
2013-10-11 11:42:00,68.8,57.8,29.99,SE,137,3.4,9.2,68,0.00,CLR,,0.00,613.0,WeatherDisplay:10.37,2013-10-11 16:42:00,
2013-10-11 11:47:00,69.6,58.6,29.98,ESE,121,0.0,1.2,68,0.00,CLR,,0.00,617.0,WeatherDisplay:10.37,2013-10-11 16:47:00,
2013-10-11 11:52:00,70.1,58.2,29.98,SE,128,0.9,4.4,66,0.00,CLR,,0.00,635.0,WeatherDisplay:10.37,2013-10-11 16:52:00,
2013-10-11 11:57:00,70.4,58.5,29.98,SSE,152,3.3,9.9,66,0.00,CLR,,0.00,642.0,WeatherDisplay:10.37,2013-10-11 16:57:00,
2013-10-11 12:02:00,70.6,58.3,29.98,South,189,5.7,9.2,65,0.00,CLR,,0.00,622.0,WeatherDisplay:10.37,2013-10-11 17:02:00,
2013-10-11 12:07:00,70.9,59.0,29.98,South,183,1.4,7.7,66,0.00,CLR,,0.00,621.0,WeatherDisplay:10.37,2013-10-11 17:07:00,
2013-10-11 12:12:00,70.9,58.1,29.98,SSE,168,2.1,6.9,64,0.00,CLR,,0.00,626.0,WeatherDisplay:10.37,2013-10-11 17:12:00,
2013-10-11 12:17:00,71.1,58.3,29.97,South,173,0.0,1.1,64,0.00,CLR,,0.00,633.0,WeatherDisplay:10.37,2013-10-11 17:17:00,
2013-10-11 12:22:00,71.3,58.5,29.97,South,182,6.2,8.1,64,0.00,CLR,,0.00,645.0,WeatherDisplay:10.37,2013-10-11 17:22:00,
2013-10-11 12:27:00,70.8,58.0,29.97,SE,132,2.8,10.4,64,0.00,CLR,,0.00,694.0,WeatherDisplay:10.37,2013-10-11 17:27:00,
2013-10-11 12:32:00,71.5,58.2,29.96,SE,141,1.6,10.4,63,0.00,CLR,,0.00,652.0,WeatherDisplay:10.37,2013-10-11 17:32:00,
2013-10-11 12:37:00,72.1,58.8,29.96,South,169,3.0,7.7,63,0.00,CLR,,0.00,654.0,WeatherDisplay:10.37,2013-10-11 17:37:00,
2013-10-11 12:42:00,72.1,58.4,29.96,SSE,163,9.0,16.5,62,0.00,CLR,,0.00,668.0,WeatherDisplay:10.37,2013-10-11 17:42:00,
2013-10-11 12:47:00,71.8,58.1,29.95,South,187,9.8,15.4,62,0.00,CLR,,0.00,693.0,WeatherDisplay:10.37,2013-10-11 17:47:00,
2013-10-11 12:52:00,72.1,58.4,29.95,SE,142,4.3,6.9,62,0.00,CLR,,0.00,677.0,WeatherDisplay:10.37,2013-10-11 17:52:00,
2013-10-11 12:57:00,71.5,58.2,29.95,SE,145,5.5,8.1,63,0.00,CLR,,0.00,179.0,WeatherDisplay:10.37,2013-10-11 17:57:00,
2013-10-11 13:02:00,71.1,58.3,29.95,SE,131,6.5,8.8,64,0.00,CLR,,0.00,213.0,WeatherDisplay:10.37,2013-10-11 18:02:00,
2013-10-11 13:07:00,71.1,58.3,29.95,SSW,202,5.6,9.2,64,0.00,CLR,,0.00,169.0,WeatherDisplay:10.37,2013-10-11 18:07:00,
2013-10-11 13:12:00,71.8,58.5,29.95,ESE,114,3.2,6.6,63,0.00,CLR,,0.00,719.0,WeatherDisplay:10.37,2013-10-11 18:12:00,
2013-10-11 13:17:00,71.8,58.1,29.94,South,188,4.5,9.9,62,0.00,CLR,,0.00,244.0,WeatherDisplay:10.37,2013-10-11 18:17:00,
2013-10-11 13:22:00,71.8,58.1,29.94,SSE,157,7.0,10.4,62,0.00,CLR,,0.00,160.0,WeatherDisplay:10.37,2013-10-11 18:22:00,
2013-10-11 13:27:00,71.3,58.1,29.94,South,180,7.2,12.7,63,0.00,CLR,,0.00,253.0,WeatherDisplay:10.37,2013-10-11 18:27:00,
2013-10-11 13:32:00,71.1,57.9,29.93,SSE,161,10.0,16.5,63,0.00,CLR,,0.00,243.0,WeatherDisplay:10.37,2013-10-11 18:32:00,
2013-10-11 13:37:00,71.1,58.3,29.93,SSE,161,7.4,13.2,64,0.00,CLR,,0.00,768.0,WeatherDisplay:10.37,2013-10-11 18:37:00,
2013-10-11 13:42:00,72.0,58.3,29.93,South,182,5.8,9.2,62,0.00,CLR,,0.00,199.0,WeatherDisplay:10.37,2013-10-11 18:42:00,
2013-10-11 13:47:00,72.0,58.3,29.93,North,349,3.7,12.1,62,0.00,CLR,,0.00,195.0,WeatherDisplay:10.37,2013-10-11 18:47:00,
2013-10-11 13:52:00,71.8,57.6,29.93,SSE,150,8.6,18.7,61,0.00,CLR,,0.00,239.0,WeatherDisplay:10.37,2013-10-11 18:52:00,
2013-10-11 13:57:00,72.8,58.1,29.93,East,85,7.6,13.2,60,0.00,CLR,,0.00,663.0,WeatherDisplay:10.37,2013-10-11 18:57:00,
2013-10-11 14:02:00,72.7,58.0,29.91,South,187,10.4,25.3,60,0.00,SCT,,0.00,619.0,WeatherDisplay:10.37,2013-10-11 19:02:00,
2013-10-11 14:07:00,72.5,58.3,29.91,SE,146,4.5,6.9,61,0.00,SCT,,0.00,188.0,WeatherDisplay:10.37,2013-10-11 19:07:00,
2013-10-11 14:12:00,73.2,58.9,29.91,South,180,3.0,7.7,61,0.00,SCT,,0.00,693.0,WeatherDisplay:10.37,2013-10-11 19:12:00,
2013-10-11 14:17:00,72.8,58.1,29.91,SE,137,5.1,8.1,60,0.00,SCT,,0.00,179.0,WeatherDisplay:10.37,2013-10-11 19:17:00,
2013-10-11 14:22:00,72.3,57.6,29.91,SE,146,6.1,9.2,60,0.00,CLR,,0.00,176.0,WeatherDisplay:10.37,2013-10-11 19:22:00,
2013-10-11 14:27:00,72.0,57.4,29.91,SE,134,8.1,16.5,60,0.00,CLR,,0.00,193.0,WeatherDisplay:10.37,2013-10-11 19:27:00,
2013-10-11 14:32:00,72.7,57.5,29.91,SE,125,6.7,10.4,59,0.00,CLR,,0.00,696.0,WeatherDisplay:10.37,2013-10-11 19:32:00,
2013-10-11 14:37:00,73.2,57.5,29.91,East,84,8.5,16.5,58,0.00,CLR,,0.00,657.0,WeatherDisplay:10.37,2013-10-11 19:37:00,
2013-10-11 14:42:00,73.2,57.5,29.91,SSW,200,6.9,15.4,58,0.00,CLR,,0.00,592.0,WeatherDisplay:10.37,2013-10-11 19:42:00,
2013-10-11 14:47:00,72.7,57.5,29.90,SSE,153,6.1,9.2,59,0.00,CLR,,0.00,599.0,WeatherDisplay:10.37,2013-10-11 19:47:00,
2013-10-11 14:52:00,73.9,57.2,29.90,SSE,147,8.4,16.5,56,0.00,CLR,,0.00,608.0,WeatherDisplay:10.37,2013-10-11 19:52:00,
2013-10-11 14:57:00,74.2,58.0,29.90,SSE,147,5.9,11.5,57,0.00,CLR,,0.00,612.0,WeatherDisplay:10.37,2013-10-11 19:57:00,
2013-10-11 15:02:00,74.6,57.4,29.90,SSE,147,6.0,10.4,55,0.00,CLR,,0.00,547.0,WeatherDisplay:10.37,2013-10-11 20:02:00,
2013-10-11 15:07:00,74.2,57.5,29.90,SSE,152,3.8,8.1,56,0.00,CLR,,0.00,489.0,WeatherDisplay:10.37,2013-10-11 20:07:00,
2013-10-11 15:12:00,74.0,56.8,29.90,SSE,165,5.5,13.2,55,0.00,SCT,,0.00,536.0,WeatherDisplay:10.37,2013-10-11 20:12:00,
2013-10-11 15:17:00,73.9,57.2,29.90,ESE,113,8.8,23.0,56,0.00,SCT,,0.00,538.0,WeatherDisplay:10.37,2013-10-11 20:17:00,
2013-10-11 15:22:00,73.5,56.8,29.90,SE,143,9.9,14.3,56,0.00,SCT,,0.00,501.0,WeatherDisplay:10.37,2013-10-11 20:22:00,
2013-10-11 15:27:00,73.3,56.7,29.90,SSE,150,10.2,12.7,56,0.00,SCT,,0.00,462.0,WeatherDisplay:10.37,2013-10-11 20:27:00,
2013-10-11 15:32:00,72.7,57.1,29.90,South,171,5.2,20.7,58,0.00,SCT,,0.00,84.0,WeatherDisplay:10.37,2013-10-11 20:32:00,
2013-10-11 15:37:00,73.0,56.9,29.90,SE,126,8.8,13.8,57,0.00,SCT,,0.00,439.0,WeatherDisplay:10.37,2013-10-11 20:37:00,
2013-10-11 15:42:00,73.3,57.1,29.90,SE,146,7.5,14.3,57,0.00,SCT,,0.00,425.0,WeatherDisplay:10.37,2013-10-11 20:42:00,
2013-10-11 15:47:00,73.5,57.3,29.89,SSE,156,3.3,10.4,57,0.00,SCT,,0.00,422.0,WeatherDisplay:10.37,2013-10-11 20:47:00,
2013-10-11 15:52:00,74.0,57.8,29.89,South,170,0.8,8.1,57,0.00,SCT,,0.00,420.0,WeatherDisplay:10.37,2013-10-11 20:52:00,
2013-10-11 15:57:00,74.2,57.5,29.89,SSE,150,10.1,14.3,56,0.00,SCT,,0.00,404.0,WeatherDisplay:10.37,2013-10-11 20:57:00,
2013-10-11 16:02:00,73.7,57.5,29.88,SSE,152,4.5,11.5,57,0.00,SCT,,0.00,366.0,WeatherDisplay:10.37,2013-10-11 21:02:00,
2013-10-11 16:07:00,73.5,56.8,29.88,SSW,199,7.2,15.4,56,0.00,SCT,,0.00,355.0,WeatherDisplay:10.37,2013-10-11 21:07:00,
2013-10-11 16:12:00,73.7,57.0,29.88,SE,130,2.4,6.9,56,0.00,SCT,,0.00,330.0,WeatherDisplay:10.37,2013-10-11 21:12:00,
2013-10-11 16:17:00,73.7,57.0,29.88,South,178,6.5,14.3,56,0.00,SCT,,0.00,332.0,WeatherDisplay:10.37,2013-10-11 21:17:00,
2013-10-11 16:22:00,73.7,57.0,29.88,SSE,155,2.1,9.2,56,0.00,SCT,,0.00,308.0,WeatherDisplay:10.37,2013-10-11 21:22:00,
2013-10-11 16:27:00,73.7,57.0,29.88,SSE,165,4.6,11.5,56,0.00,SCT,,0.00,287.0,WeatherDisplay:10.37,2013-10-11 21:27:00,
2013-10-11 16:32:00,73.7,57.0,29.88,SE,126,6.2,11.0,56,0.00,SCT,,0.00,274.0,WeatherDisplay:10.37,2013-10-11 21:32:00,
2013-10-11 16:37:00,73.5,56.8,29.88,South,189,8.7,15.4,56,0.00,SCT,,0.00,272.0,WeatherDisplay:10.37,2013-10-11 21:37:00,
2013-10-11 16:42:00,73.2,56.6,29.88,SSE,149,7.2,16.1,56,0.00,SCT,,0.00,255.0,WeatherDisplay:10.37,2013-10-11 21:42:00,
2013-10-11 16:47:00,73.2,56.6,29.88,SE,136,7.2,11.5,56,0.00,SCT,,0.00,255.0,WeatherDisplay:10.37,2013-10-11 21:47:00,
2013-10-11 16:52:00,73.2,56.6,29.88,SSW,202,7.2,13.8,56,0.00,SCT,,0.00,241.0,WeatherDisplay:10.37,2013-10-11 21:52:00,
2013-10-11 16:57:00,73.0,56.9,29.88,SE,140,5.5,12.7,57,0.00,SCT,,0.00,179.0,WeatherDisplay:10.37,2013-10-11 21:57:00,
2013-10-11 17:02:00,72.8,56.7,29.88,SSE,160,5.5,8.1,57,0.00,SCT,,0.00,165.0,WeatherDisplay:10.37,2013-10-11 22:02:00,
2013-10-11 17:07:00,72.7,57.1,29.88,East,94,6.0,9.2,58,0.00,SCT,,0.00,77.0,WeatherDisplay:10.37,2013-10-11 22:07:00,
2013-10-11 17:12:00,72.5,56.9,29.88,SSE,148,7.4,12.7,58,0.00,CLR,,0.00,53.0,WeatherDisplay:10.37,2013-10-11 22:12:00,
2013-10-11 17:17:00,72.5,57.4,29.87,South,183,6.8,12.1,59,0.00,CLR,,0.00,44.0,WeatherDisplay:10.37,2013-10-11 22:17:00,
2013-10-11 17:22:00,72.3,57.2,29.87,SSE,157,2.3,5.5,59,0.00,CLR,,0.00,42.0,WeatherDisplay:10.37,2013-10-11 22:22:00,
2013-10-11 17:27:00,72.0,56.9,29.87,SE,135,6.4,10.4,59,0.00,CLR,,0.00,40.0,WeatherDisplay:10.37,2013-10-11 22:27:00,
2013-10-11 17:32:00,71.8,57.2,29.87,SE,146,4.9,12.7,60,0.00,CLR,,0.00,40.0,WeatherDisplay:10.37,2013-10-11 22:32:00,
2013-10-11 17:37:00,71.8,57.2,29.87,NE,53,1.9,5.8,60,0.00,CLR,,0.00,42.0,WeatherDisplay:10.37,2013-10-11 22:37:00,
2013-10-11 17:42:00,71.6,57.0,29.87,South,169,0.6,4.6,60,0.00,CLR,,0.00,33.0,WeatherDisplay:10.37,2013-10-11 22:42:00,
2013-10-11 17:47:00,71.5,56.9,29.88,SSE,163,2.9,6.9,60,0.00,CLR,,0.00,32.0,WeatherDisplay:10.37,2013-10-11 22:47:00,
2013-10-11 17:52:00,71.3,56.7,29.88,South,179,2.7,6.9,60,0.00,CLR,,0.00,28.0,WeatherDisplay:10.37,2013-10-11 22:52:00,
2013-10-11 17:57:00,71.1,56.5,29.88,SE,137,1.5,5.5,60,0.00,CLR,,0.00,23.0,WeatherDisplay:10.37,2013-10-11 22:57:00,
2013-10-11 18:02:00,70.9,56.8,29.88,South,180,0.8,3.5,61,0.00,CLR,,0.00,16.0,WeatherDisplay:10.37,2013-10-11 23:02:00,
2013-10-11 18:07:00,70.8,56.7,29.88,SE,141,1.1,4.4,61,0.00,CLR,,0.00,12.0,WeatherDisplay:10.37,2013-10-11 23:07:00,
2013-10-11 18:12:00,70.6,56.9,29.88,South,172,0.0,0.0,62,0.00,CLR,,0.00,9.0,WeatherDisplay:10.37,2013-10-11 23:12:00,
2013-10-11 18:17:00,70.3,56.7,29.88,SSE,161,1.8,4.6,62,0.00,CLR,,0.00,5.0,WeatherDisplay:10.37,2013-10-11 23:17:00,
2013-10-11 18:22:00,70.1,56.5,29.88,SSE,168,0.0,2.3,62,0.00,CLR,,0.00,0.0,WeatherDisplay:10.37,2013-10-11 23:22:00,
2013-10-11 18:27:00,69.8,56.2,29.88,SSE,154,0.8,4.6,62,0.00,CLR,,0.00,0.0,WeatherDisplay:10.37,2013-10-11 23:27:00,
2013-10-11 18:32:00,69.6,56.4,29.88,SSE,163,0.9,8.1,63,0.00,CLR,,0.00,0.0,WeatherDisplay:10.37,2013-10-11 23:32:00,
2013-10-11 18:37:00,69.4,56.3,29.88,SE,133,1.0,6.9,63,0.00,CLR,,0.00,0.0,WeatherDisplay:10.37,2013-10-11 23:37:00,
2013-10-11 18:42:00,69.1,56.4,29.88,South,174,1.6,5.8,64,0.00,CLR,,0.00,0.0,WeatherDisplay:10.37,2013-10-11 23:42:00,
2013-10-11 18:47:00,68.9,56.2,29.88,ESE,123,0.1,1.1,64,0.00,CLR,,0.00,0.0,WeatherDisplay:10.37,2013-10-11 23:47:00,
2013-10-11 18:52:00,68.8,56.1,29.88,SSE,162,0.2,2.3,64,0.00,CLR,,0.00,0.0,WeatherDisplay:10.37,2013-10-11 23:52:00,
2013-10-11 18:57:00,68.4,56.2,29.88,South,184,0.8,5.5,65,0.00,CLR,,0.00,0.0,WeatherDisplay:10.37,2013-10-11 23:57:00,
2013-10-11 19:02:00,68.3,56.1,29.88,South,171,0.0,0.0,65,0.00,CLR,,0.00,0.0,WeatherDisplay:10.37,2013-10-12 00:02:00,
2013-10-11 19:07:00,68.1,55.9,29.88,South,174,0.0,0.0,65,0.00,CLR,,0.00,0.0,WeatherDisplay:10.37,2013-10-12 00:07:00,
2013-10-11 19:12:00,68.1,56.3,29.88,South,183,0.0,4.6,66,0.00,CLR,,0.00,0.0,WeatherDisplay:10.37,2013-10-12 00:12:00,
2013-10-11 19:17:00,67.8,56.0,29.89,South,184,0.0,0.0,66,0.00,CLR,,0.00,0.0,WeatherDisplay:10.37,2013-10-12 00:17:00,
2013-10-11 19:22:00,67.6,56.2,29.89,South,184,0.0,0.0,67,0.00,SCT,,0.00,0.0,WeatherDisplay:10.37,2013-10-12 00:22:00,
2013-10-11 19:27:00,67.1,56.2,29.89,South,184,0.0,0.0,68,0.00,SCT,,0.00,0.0,WeatherDisplay:10.37,2013-10-12 00:27:00,
2013-10-11 19:32:00,66.8,56.3,29.89,South,184,0.0,0.0,69,0.00,SCT,,0.00,0.0,WeatherDisplay:10.37,2013-10-12 00:32:00,
2013-10-11 19:37:00,66.4,55.9,29.89,South,184,0.0,1.1,69,0.00,SCT,,0.00,0.0,WeatherDisplay:10.37,2013-10-12 00:37:00,
2013-10-11 19:42:00,66.3,56.2,29.89,South,184,0.0,0.0,70,0.00,SCT,,0.00,0.0,WeatherDisplay:10.37,2013-10-12 00:42:00,
2013-10-11 19:47:00,66.1,56.0,29.90,South,184,0.0,0.0,70,0.00,SCT,,0.00,0.0,WeatherDisplay:10.37,2013-10-12 00:47:00,
2013-10-11 19:52:00,65.8,56.1,29.90,South,184,0.0,0.0,71,0.00,SCT,,0.00,0.0,WeatherDisplay:10.37,2013-10-12 00:52:00,
2013-10-11 19:57:00,65.6,55.9,29.90,South,184,0.0,0.0,71,0.00,SCT,,0.00,0.0,WeatherDisplay:10.37,2013-10-12 00:57:00,
2013-10-11 20:02:00,65.5,56.2,29.90,South,184,0.0,0.0,72,0.00,SCT,,0.00,0.0,WeatherDisplay:10.37,2013-10-12 01:02:00,
2013-10-11 20:07:00,65.2,56.3,29.90,South,184,0.0,0.0,73,0.00,SCT,,0.00,0.0,WeatherDisplay:10.37,2013-10-12 01:07:00,
2013-10-11 20:12:00,64.8,55.9,29.90,South,184,0.0,0.0,73,0.00,OVC,,0.00,0.0,WeatherDisplay:10.37,2013-10-12 01:12:00,
2013-10-11 20:17:00,64.7,56.2,29.90,South,184,0.0,0.0,74,0.00,OVC,,0.00,0.0,WeatherDisplay:10.37,2013-10-12 01:17:00,
2013-10-11 20:22:00,64.5,56.0,29.90,South,184,0.0,0.0,74,0.00,BKN,,0.00,0.0,WeatherDisplay:10.37,2013-10-12 01:22:00,
2013-10-11 20:27:00,64.3,55.8,29.90,South,184,0.0,0.0,74,0.00,BKN,,0.00,0.0,WeatherDisplay:10.37,2013-10-12 01:27:00,
2013-10-11 20:32:00,64.2,56.1,29.90,South,184,0.0,0.0,75,0.00,BKN,,0.00,0.0,WeatherDisplay:10.37,2013-10-12 01:32:00,
2013-10-11 20:37:00,64.0,55.9,29.90,South,184,0.0,0.0,75,0.00,BKN,,0.00,0.0,WeatherDisplay:10.37,2013-10-12 01:37:00,
2013-10-11 20:42:00,63.9,56.2,29.90,South,184,0.0,0.0,76,0.00,OVC,,0.00,0.0,WeatherDisplay:10.37,2013-10-12 01:42:00,
2013-10-11 20:47:00,63.7,56.0,29.89,South,184,0.0,0.0,76,0.00,OVC,,0.00,0.0,WeatherDisplay:10.37,2013-10-12 01:47:00,
2013-10-11 20:52:00,63.5,56.2,29.89,South,184,0.0,0.0,77,0.00,OVC,,0.00,0.0,WeatherDisplay:10.37,2013-10-12 01:52:00,
2013-10-11 20:57:00,63.4,56.1,29.89,South,184,0.0,0.0,77,0.00,OVC,,0.00,0.0,WeatherDisplay:10.37,2013-10-12 01:57:00,
2013-10-11 21:02:00,63.4,56.1,29.90,South,184,0.0,0.0,77,0.00,OVC,,0.00,0.0,WeatherDisplay:10.37,2013-10-12 02:02:00,
2013-10-11 21:07:00,63.4,56.1,29.90,South,184,0.0,0.0,77,0.00,OVC,,0.00,0.0,WeatherDisplay:10.37,2013-10-12 02:07:00,
2013-10-11 21:12:00,63.4,56.1,29.90,South,184,0.0,0.0,77,0.00,OVC,,0.00,0.0,WeatherDisplay:10.37,2013-10-12 02:12:00,
2013-10-11 21:17:00,63.2,55.9,29.90,South,184,0.0,0.0,77,0.00,OVC,,0.00,0.0,WeatherDisplay:10.37,2013-10-12 02:17:00,
2013-10-11 21:22:00,63.2,55.9,29.90,NNE,12,0.0,1.2,77,0.00,OVC,,0.00,0.0,WeatherDisplay:10.37,2013-10-12 02:22:00,
2013-10-11 21:27:00,63.2,55.9,29.90,East,80,0.4,2.3,77,0.00,OVC,,0.00,0.0,WeatherDisplay:10.37,2013-10-12 02:27:00,
2013-10-11 21:32:00,63.2,55.9,29.89,SSE,151,0.0,0.0,77,0.00,OVC,,0.00,0.0,WeatherDisplay:10.37,2013-10-12 02:32:00,
2013-10-11 21:37:00,63.4,56.1,29.89,SE,138,0.0,0.0,77,0.00,OVC,,0.00,0.0,WeatherDisplay:10.37,2013-10-12 02:37:00,
2013-10-11 21:42:00,63.4,55.7,29.89,ENE,77,0.0,0.0,76,0.00,OVC,,0.00,0.0,WeatherDisplay:10.37,2013-10-12 02:42:00,
2013-10-11 21:47:00,63.4,55.7,29.89,SSE,164,0.0,0.0,76,0.00,OVC,,0.00,0.0,WeatherDisplay:10.37,2013-10-12 02:47:00,
2013-10-11 21:52:00,63.4,55.7,29.89,SSE,158,0.0,0.0,76,0.00,OVC,,0.00,0.0,WeatherDisplay:10.37,2013-10-12 02:52:00,
2013-10-11 21:57:00,63.4,55.7,29.89,ENE,72,0.0,1.2,76,0.00,OVC,,0.00,0.0,WeatherDisplay:10.37,2013-10-12 02:57:00,
2013-10-11 22:02:00,63.4,55.7,29.89,SSE,166,0.0,0.0,76,0.00,OVC,,0.00,0.0,WeatherDisplay:10.37,2013-10-12 03:02:00,
2013-10-11 22:07:00,63.4,55.3,29.89,SSW,192,0.1,1.2,75,0.00,OVC,,0.00,0.0,WeatherDisplay:10.37,2013-10-12 03:07:00,
2013-10-11 22:12:00,63.4,55.3,29.89,South,176,0.0,0.0,75,0.00,BKN,,0.00,0.0,WeatherDisplay:10.37,2013-10-12 03:12:00,
2013-10-11 22:17:00,63.4,55.3,29.88,ESE,105,0.0,0.0,75,0.00,BKN,,0.00,0.0,WeatherDisplay:10.37,2013-10-12 03:17:00,
2013-10-11 22:22:00,63.4,55.3,29.88,East,92,0.0,0.0,75,0.00,OVC,,0.00,0.0,WeatherDisplay:10.37,2013-10-12 03:22:00,
2013-10-11 22:27:00,63.2,55.1,29.88,East,96,0.0,1.2,75,0.00,OVC,,0.00,0.0,WeatherDisplay:10.37,2013-10-12 03:27:00,
2013-10-11 22:32:00,63.2,55.1,29.88,East,90,0.0,0.0,75,0.00,OVC,,0.00,0.0,WeatherDisplay:10.37,2013-10-12 03:32:00,
2013-10-11 22:37:00,63.1,55.0,29.88,East,90,0.0,0.0,75,0.00,OVC,,0.00,0.0,WeatherDisplay:10.37,2013-10-12 03:37:00,
2013-10-11 22:42:00,63.1,55.0,29.88,East,101,0.0,0.0,75,0.00,OVC,,0.00,0.0,WeatherDisplay:10.37,2013-10-12 03:42:00,
2013-10-11 22:47:00,63.1,55.0,29.88,East,98,0.0,1.2,75,0.00,OVC,,0.00,0.0,WeatherDisplay:10.37,2013-10-12 03:47:00,
2013-10-11 22:52:00,63.1,55.0,29.88,East,90,0.0,0.0,75,0.00,OVC,,0.00,0.0,WeatherDisplay:10.37,2013-10-12 03:52:00,
2013-10-11 22:57:00,62.9,55.2,29.88,ESE,123,0.0,0.0,76,0.00,OVC,,0.00,0.0,WeatherDisplay:10.37,2013-10-12 03:57:00,
2013-10-11 23:01:00,62.9,55.2,29.88,SE,125,0.0,0.0,76,0.00,OVC,,0.00,0.0,WeatherDisplay:10.37,2013-10-12 04:01:00,
2013-10-11 23:02:00,62.9,55.2,29.88,SE,125,0.0,0.0,76,0.00,OVC,,0.00,0.0,WeatherDisplay:10.37,2013-10-12 04:02:00,
2013-10-11 23:07:00,63.1,55.0,29.88,ESE,110,0.0,0.0,75,0.00,OVC,,0.00,0.0,WeatherDisplay:10.37,2013-10-12 04:07:00,
2013-10-11 23:12:00,63.1,55.0,29.88,SE,137,0.0,0.0,75,0.00,BKN,,0.00,0.0,WeatherDisplay:10.37,2013-10-12 04:12:00,
2013-10-11 23:17:00,63.1,55.0,29.87,SE,137,0.0,0.0,75,0.00,BKN,,0.00,0.0,WeatherDisplay:10.37,2013-10-12 04:17:00,
2013-10-11 23:22:00,63.1,55.0,29.87,SE,131,0.0,0.0,75,0.00,BKN,,0.00,0.0,WeatherDisplay:10.37,2013-10-12 04:22:00,
2013-10-11 23:27:00,63.1,55.0,29.87,SSE,155,0.1,1.2,75,0.00,BKN,,0.00,0.0,WeatherDisplay:10.37,2013-10-12 04:27:00,
2013-10-11 23:32:00,63.2,55.1,29.87,South,176,0.7,4.4,75,0.00,BKN,,0.00,0.0,WeatherDisplay:10.37,2013-10-12 04:32:00,
2013-10-11 23:37:00,63.2,55.1,29.87,South,179,0.0,1.2,75,0.00,BKN,,0.00,0.0,WeatherDisplay:10.37,2013-10-12 04:37:00,
2013-10-11 23:42:00,63.4,55.0,29.87,East,86,0.0,0.0,74,0.00,OVC,,0.00,0.0,WeatherDisplay:10.37,2013-10-12 04:42:00,
2013-10-11 23:47:00,63.4,55.0,29.86,SSE,167,0.0,0.0,74,0.00,OVC,,0.00,0.0,WeatherDisplay:10.37,2013-10-12 04:47:00,
2013-10-11 23:52:00,63.4,55.0,29.86,SSE,167,0.0,0.0,74,0.00,OVC,,0.00,0.0,WeatherDisplay:10.37,2013-10-12 04:52:00,
2013-10-11 23:57:00,63.4,55.0,29.86,SSE,167,0.0,0.0,74,0.00,OVC,,0.00,0.0,WeatherDisplay:10.37,2013-10-12 04:57:00,